Location: Andrest
(43.3200°N, 0.0641°E)
Time: 15:22:04
(UTC+00:00)

Cosmos 1656 Rocket - Pass Details

Date: 01 December 2020
Orbit: 796 x 846 km, 71.1° (Epoch: 22 January)

Event Time Altitude Azimuth Distance (km) Brightness Sun altitude
Rises 18:46:21 0° 332° (NNW) 3,400 7.1 -25.1°
Reaches altitude 10° 18:48:49 10° 330° (NNW) 2,456 6.4 -25.5°
Maximum altitude 18:54:24 67° 249° (WSW) 895 3.9 -26.5°
Enters shadow 18:58:59 15° 169° (S) 2,078 5.7 -27.3°
